Radiation Dose at Monitoring Post of Fukushima Daini Nuclear Power Station
Date,Time,MP-1(microSv/h),MP-2(microSv/h),MP-3(microSv/h),MP-4(microSv/h),MP-5(microSv/h),MP-6(microSv/h),MP-7(microSv/h),Wind Direction,Wind Velocity(m/s),Rain
2020/03/14,00:00,0.179,0.163,0.253,0.246,0.254,0.138,0.085,north-northeast,6.7,No
2020/03/14,00:10,0.180,0.163,0.253,0.246,0.254,0.139,0.084,north,4.7,No
2020/03/14,00:20,0.180,0.163,0.253,0.246,0.254,0.139,0.085,north-northwest,3.9,No
2020/03/14,00:30,0.180,0.164,0.253,0.246,0.255,0.139,0.084,north-northwest,4.2,No
2020/03/14,00:40,0.180,0.163,0.252,0.246,0.254,0.138,0.085,north,6.0,No
2020/03/14,00:50,0.180,0.163,0.252,0.247,0.253,0.140,0.084,north-northwest,7.0,No
2020/03/14,01:00,0.179,0.164,0.253,0.246,0.254,0.139,0.084,north,7.9,No
2020/03/14,01:10,0.180,0.163,0.252,0.245,0.255,0.139,0.085,north,7.4,No
2020/03/14,01:20,0.179,0.163,0.253,0.247,0.253,0.139,0.084,north-northwest,7.3,No
2020/03/14,01:30,0.180,0.165,0.253,0.246,0.254,0.138,0.084,north-northwest,6.5,No
2020/03/14,01:40,0.180,0.163,0.254,0.246,0.254,0.139,0.084,north-northwest,6.3,No
2020/03/14,01:50,0.179,0.163,0.253,0.246,0.255,0.139,0.084,north-northwest,5.8,No
2020/03/14,02:00,0.179,0.163,0.254,0.247,0.255,0.140,0.085,north,6.3,No
2020/03/14,02:10,0.179,0.164,0.254,0.246,0.254,0.139,0.085,north,6.6,No
2020/03/14,02:20,0.179,0.164,0.253,0.247,0.254,0.139,0.084,north,7.1,No
2020/03/14,02:30,0.179,0.163,0.253,0.247,0.254,0.139,0.084,north,6.2,No
2020/03/14,02:40,0.179,0.163,0.253,0.246,0.254,0.139,0.084,north,6.1,No
2020/03/14,02:50,0.179,0.164,0.253,0.246,0.254,0.138,0.084,north,5.3,No
2020/03/14,03:00,0.179,0.163,0.253,0.247,0.254,0.138,0.085,north,5.6,No
2020/03/14,03:10,0.180,0.163,0.253,0.245,0.254,0.138,0.084,north,6.0,No
2020/03/14,03:20,0.178,0.164,0.253,0.246,0.255,0.139,0.084,north,6.3,No
2020/03/14,03:30,0.179,0.163,0.254,0.246,0.254,0.140,0.085,north,5.6,No
2020/03/14,03:40,0.179,0.163,0.255,0.247,0.254,0.139,0.084,north,6.7,No
2020/03/14,03:50,0.180,0.163,0.254,0.246,0.255,0.139,0.085,north,5.5,No
2020/03/14,04:00,0.179,0.162,0.254,0.246,0.254,0.139,0.085,north,5.3,No
2020/03/14,04:10,0.179,0.164,0.254,0.246,0.254,0.139,0.085,north,6.0,No
2020/03/14,04:20,0.180,0.162,0.253,0.247,0.255,0.139,0.085,north,5.0,No
2020/03/14,04:30,0.179,0.162,0.254,0.246,0.255,0.139,0.085,north-northwest,6.6,No
2020/03/14,04:40,0.180,0.164,0.252,0.247,0.254,0.138,0.084,north,4.2,No
2020/03/14,04:50,0.178,0.163,0.254,0.246,0.254,0.139,0.085,north-northwest,5.5,No
2020/03/14,05:00,0.180,0.164,0.254,0.246,0.255,0.138,0.085,north,4.7,No
2020/03/14,05:10,0.179,0.162,0.252,0.246,0.254,0.138,0.084,north-northwest,4.8,No
2020/03/14,05:20,0.180,0.164,0.254,0.246,0.254,0.139,0.084,north-northwest,5.4,No
2020/03/14,05:30,0.180,0.163,0.253,0.246,0.254,0.139,0.084,north-northwest,5.0,No
2020/03/14,05:40,0.179,0.162,0.255,0.246,0.254,0.139,0.084,north-northwest,4.1,No
2020/03/14,05:50,0.179,0.163,0.253,0.246,0.254,0.139,0.085,north,6.2,No
2020/03/14,06:00,0.179,0.164,0.254,0.246,0.255,0.139,0.085,north,7.3,No
2020/03/14,06:10,0.178,0.162,0.255,0.246,0.254,0.139,0.084,north-northeast,7.8,No
2020/03/14,06:20,0.178,0.162,0.254,0.246,0.253,0.138,0.085,north-northeast,7.8,No
2020/03/14,06:30,0.179,0.164,0.254,0.246,0.254,0.138,0.084,north,7.8,No
2020/03/14,06:40,0.180,0.162,0.253,0.247,0.255,0.139,0.085,north,8.7,No
2020/03/14,06:50,0.180,0.163,0.255,0.246,0.254,0.138,0.084,north-northwest,5.7,No
2020/03/14,07:00,0.179,0.163,0.254,0.247,0.255,0.139,0.085,north-northwest,5.5,No
2020/03/14,07:10,0.179,0.164,0.254,0.246,0.254,0.138,0.084,north-northwest,4.8,No
2020/03/14,07:20,0.180,0.163,0.253,0.245,0.253,0.139,0.085,north,5.5,No
2020/03/14,07:30,0.180,0.162,0.254,0.247,0.254,0.138,0.085,north-northwest,4.8,No
2020/03/14,07:40,0.179,0.162,0.255,0.246,0.254,0.139,0.084,north-northwest,4.8,No
2020/03/14,07:50,0.179,0.164,0.254,0.245,0.253,0.139,0.084,northwest,4.8,No
2020/03/14,08:00,0.178,0.164,0.253,0.245,0.254,0.138,0.084,north-northwest,5.5,No
2020/03/14,08:10,0.179,0.163,0.254,0.246,0.253,0.139,0.084,north-northwest,6.4,No
2020/03/14,08:20,0.180,0.162,0.255,0.247,0.254,0.140,0.085,northwest,5.8,No
2020/03/14,08:30,0.180,0.163,0.255,0.246,0.254,0.140,0.084,north-northwest,6.1,No
2020/03/14,08:40,0.179,0.163,0.256,0.246,0.254,0.140,0.084,northwest,5.6,No
2020/03/14,08:50,0.180,0.162,0.254,0.246,0.253,0.139,0.085,northwest,5.8,No
2020/03/14,09:00,0.179,0.164,0.254,0.246,0.255,0.139,0.084,northwest,5.7,No
2020/03/14,09:10,0.180,0.163,0.255,0.245,0.254,0.138,0.084,north-northwest,5.5,No
2020/03/14,09:20,0.179,0.163,0.254,0.247,0.254,0.139,0.084,north,5.1,No
2020/03/14,09:30,0.180,0.163,0.254,0.247,0.255,0.139,0.085,north-northwest,6.0,Yes
2020/03/14,09:40,0.180,0.164,0.255,0.246,0.256,0.140,0.085,north-northwest,6.4,Yes
2020/03/14,09:50,0.181,0.165,0.256,0.246,0.255,0.141,0.087,north-northwest,5.2,Yes
2020/03/14,10:00,0.182,0.165,0.257,0.247,0.255,0.140,0.087,north-northwest,4.4,Yes
2020/03/14,10:10,0.182,0.166,0.255,0.248,0.255,0.141,0.086,north-northwest,5.2,Yes
2020/03/14,10:20,0.182,0.165,0.256,0.247,0.256,0.142,0.088,northwest,5.0,Yes
2020/03/14,10:30,0.181,0.165,0.256,0.246,0.255,0.143,0.088,northwest,5.3,Yes
2020/03/14,10:40,0.181,0.166,0.254,0.246,0.255,0.142,0.088,north-northwest,4.9,Yes
2020/03/14,10:50,0.182,0.165,0.256,0.246,0.255,0.142,0.087,northwest,4.9,Yes
2020/03/14,11:00,0.182,0.165,0.254,0.245,0.254,0.142,0.088,north-northwest,4.7,Yes
2020/03/14,11:10,0.181,0.166,0.254,0.246,0.254,0.142,0.087,north-northwest,5.7,Yes
2020/03/14,11:20,0.182,0.166,0.253,0.244,0.254,0.141,0.088,north-northwest,5.9,Yes
2020/03/14,11:30,0.181,0.165,0.252,0.245,0.254,0.141,0.088,north-northwest,5.3,Yes
2020/03/14,11:40,0.181,0.165,0.253,0.244,0.254,0.141,0.087,north-northwest,6.1,Yes
2020/03/14,11:50,0.180,0.165,0.253,0.244,0.255,0.140,0.088,north-northwest,4.8,Yes
2020/03/14,12:00,0.180,0.165,0.253,0.244,0.253,0.141,0.087,north-northwest,5.3,Yes
2020/03/14,12:10,0.182,0.165,0.253,0.244,0.254,0.141,0.087,northwest,4.5,Yes
2020/03/14,12:20,0.181,0.165,0.251,0.243,0.253,0.141,0.087,north-northwest,5.6,Yes
2020/03/14,12:30,0.180,0.165,0.253,0.242,0.253,0.140,0.087,north-northwest,5.4,Yes
2020/03/14,12:40,0.181,0.165,0.252,0.244,0.254,0.140,0.088,north-northwest,4.0,Yes
2020/03/14,12:50,0.181,0.165,0.250,0.243,0.253,0.140,0.088,north-northwest,5.3,Yes
2020/03/14,13:00,0.182,0.165,0.253,0.242,0.252,0.141,0.089,north-northwest,4.7,Yes
2020/03/14,13:10,0.181,0.164,0.252,0.243,0.253,0.140,0.088,northwest,5.5,Yes
2020/03/14,13:20,0.181,0.166,0.250,0.242,0.253,0.141,0.089,north-northwest,6.0,Yes
2020/03/14,13:30,0.180,0.165,0.252,0.242,0.252,0.141,0.089,north,6.7,Yes
2020/03/14,13:40,0.181,0.166,0.251,0.242,0.254,0.142,0.089,north-northwest,6.1,Yes
2020/03/14,13:50,0.181,0.166,0.252,0.242,0.253,0.142,0.090,north-northwest,5.5,Yes
2020/03/14,14:00,0.181,0.166,0.251,0.242,0.254,0.141,0.089,northwest,6.1,Yes
2020/03/14,14:10,0.181,0.166,0.251,0.242,0.253,0.141,0.089,north-northwest,5.9,Yes
2020/03/14,14:20,0.180,0.165,0.251,0.241,0.254,0.142,0.089,northwest,4.8,Yes
2020/03/14,14:30,0.181,0.166,0.250,0.241,0.253,0.141,0.089,north-northwest,5.6,Yes
2020/03/14,14:40,0.182,0.166,0.250,0.241,0.254,0.140,0.088,northwest,6.2,Yes
2020/03/14,14:50,0.180,0.166,0.249,0.241,0.253,0.141,0.087,north-northwest,6.0,Yes
2020/03/14,15:00,0.180,0.165,0.249,0.241,0.253,0.141,0.089,north-northwest,5.7,Yes
2020/03/14,15:10,0.180,0.166,0.248,0.241,0.253,0.141,0.089,north-northwest,6.4,Yes
2020/03/14,15:20,0.181,0.165,0.250,0.240,0.254,0.141,0.089,northwest,7.0,Yes
2020/03/14,15:30,0.180,0.165,0.250,0.240,0.253,0.141,0.089,northwest,6.7,Yes
2020/03/14,15:40,0.180,0.164,0.249,0.240,0.253,0.140,0.089,north-northwest,6.6,Yes
2020/03/14,15:50,0.180,0.164,0.249,0.240,0.252,0.140,0.088,northwest,6.7,Yes
2020/03/14,16:00,0.178,0.165,0.249,0.240,0.252,0.139,0.088,northwest,6.4,Yes
2020/03/14,16:10,0.178,0.165,0.248,0.238,0.252,0.140,0.087,north-northwest,8.2,Yes
2020/03/14,16:20,0.179,0.164,0.248,0.238,0.253,0.139,0.088,north-northwest,7.5,Yes
2020/03/14,16:30,0.178,0.164,0.250,0.239,0.253,0.139,0.088,north-northwest,7.3,Yes
2020/03/14,16:40,0.178,0.164,0.248,0.238,0.252,0.139,0.087,north-northwest,7.8,Yes
2020/03/14,16:50,0.178,0.163,0.248,0.239,0.252,0.138,0.087,north-northwest,8.1,Yes
2020/03/14,17:00,0.177,0.163,0.249,0.239,0.251,0.138,0.087,northwest,7.4,Yes
2020/03/14,17:10,0.179,0.163,0.248,0.237,0.252,0.139,0.087,northwest,6.8,Yes
2020/03/14,17:20,0.178,0.164,0.248,0.239,0.253,0.139,0.086,northwest,7.1,Yes
2020/03/14,17:30,0.178,0.164,0.248,0.238,0.252,0.140,0.087,north-northwest,8.8,Yes
2020/03/14,17:40,0.177,0.165,0.248,0.238,0.253,0.140,0.088,northwest,7.5,Yes
2020/03/14,17:50,0.179,0.164,0.249,0.239,0.252,0.139,0.088,north-northwest,8.7,Yes
2020/03/14,18:00,0.178,0.165,0.249,0.238,0.253,0.139,0.088,northwest,8.5,Yes
2020/03/14,18:10,0.180,0.167,0.249,0.238,0.253,0.141,0.088,north-northwest,8.7,Yes
2020/03/14,18:20,0.180,0.166,0.249,0.239,0.253,0.141,0.088,north-northwest,8.8,Yes
2020/03/14,18:30,0.179,0.166,0.250,0.239,0.253,0.142,0.089,northwest,8.7,Yes
2020/03/14,18:40,0.180,0.166,0.249,0.239,0.253,0.141,0.089,north-northwest,8.2,Yes
2020/03/14,18:50,0.180,0.166,0.250,0.240,0.255,0.141,0.089,north-northwest,9.0,Yes
2020/03/14,19:00,0.180,0.166,0.250,0.240,0.256,0.140,0.089,north-northwest,8.5,Yes
2020/03/14,19:10,0.178,0.165,0.250,0.239,0.254,0.140,0.089,north-northwest,8.7,Yes
2020/03/14,19:20,0.178,0.165,0.250,0.239,0.254,0.140,0.088,north-northwest,8.5,Yes
2020/03/14,19:30,0.176,0.164,0.250,0.239,0.253,0.139,0.087,north-northwest,8.7,Yes
2020/03/14,19:40,0.177,0.164,0.249,0.238,0.253,0.139,0.087,north-northwest,8.8,Yes
2020/03/14,19:50,0.178,0.164,0.249,0.237,0.253,0.138,0.087,northwest,8.1,Yes
2020/03/14,20:00,0.176,0.164,0.248,0.238,0.252,0.138,0.087,north-northwest,9.6,Yes
2020/03/14,20:10,0.177,0.163,0.249,0.237,0.251,0.137,0.086,north-northwest,8.9,Yes
2020/03/14,20:20,0.176,0.163,0.248,0.238,0.253,0.138,0.086,north-northwest,8.8,Yes
2020/03/14,20:30,0.175,0.162,0.248,0.237,0.252,0.137,0.085,north-northwest,8.4,No
2020/03/14,20:40,0.175,0.162,0.247,0.237,0.251,0.136,0.085,north-northwest,8.8,No
2020/03/14,20:50,0.174,0.162,0.247,0.235,0.250,0.136,0.084,north-northwest,8.1,No
2020/03/14,21:00,0.174,0.160,0.247,0.236,0.250,0.135,0.084,north-northwest,8.7,Yes
2020/03/14,21:10,0.174,0.161,0.247,0.235,0.251,0.136,0.083,north-northwest,8.4,Yes
2020/03/14,21:20,0.174,0.161,0.246,0.234,0.250,0.136,0.084,north-northwest,8.4,Yes
2020/03/14,21:30,0.175,0.160,0.245,0.236,0.251,0.135,0.084,north-northwest,7.9,Yes
2020/03/14,21:40,0.174,0.160,0.246,0.235,0.250,0.135,0.084,north-northwest,8.5,Yes
2020/03/14,21:50,0.174,0.159,0.247,0.235,0.250,0.135,0.083,north-northwest,9.0,Yes
2020/03/14,22:00,0.174,0.160,0.246,0.235,0.250,0.135,0.083,north-northwest,7.7,Yes
2020/03/14,22:10,0.173,0.159,0.247,0.236,0.250,0.135,0.083,north-northwest,8.1,Yes
2020/03/14,22:20,0.174,0.160,0.245,0.236,0.249,0.135,0.083,north-northwest,9.0,No
2020/03/14,22:30,0.173,0.159,0.246,0.234,0.249,0.134,0.083,north-northwest,8.2,No
2020/03/14,22:40,0.173,0.158,0.245,0.234,0.249,0.135,0.083,north-northwest,7.9,No
2020/03/14,22:50,0.173,0.160,0.245,0.236,0.249,0.134,0.083,north-northwest,7.3,No
2020/03/14,23:00,0.172,0.159,0.246,0.236,0.249,0.134,0.083,northwest,7.4,No
2020/03/14,23:10,0.173,0.160,0.246,0.236,0.249,0.134,0.083,north-northwest,8.2,No
2020/03/14,23:20,0.173,0.159,0.246,0.234,0.249,0.134,0.082,north-northwest,9.2,No
2020/03/14,23:30,0.173,0.159,0.246,0.235,0.250,0.134,0.082,north-northwest,8.9,No
2020/03/14,23:40,0.174,0.159,0.246,0.235,0.248,0.133,0.083,north-northwest,9.0,No
2020/03/14,23:50,0.174,0.160,0.245,0.236,0.249,0.135,0.082,north-northwest,8.7,No
